Date String (YYYY-MM-DD hh:mm:ss) UTC,Instrument flags,absolute air pressure of the measurement (hPa),sample flow rate (lpm),inlet stack bypass flow (lpm),air temperature of the measurement (°C),ambient temperature measured by the external sensor (°C),aerosol sample conditioner tube jacket temperature (°C),OPC LED temperature (°C),internal box temperature (°C),relative humidity of the measurement (%),span deviation,mass concentration of particles derived from Lorenz-Mie calculation of OPC scattering (μg/m³),mass concentration of particles derived from Lorenz-Mie calculation of OPC scattering (μg/m³),mass concentration of particles derived from Lorenz-Mie calculation of OPC scattering (μg/m³)
DateTimeUTC,F1_M11,P_M11,Q1_M11,Q2_M11,T1_M11,T2_M11,T3_M11,T4_M11,T5_M11,U1_M11,ZSPAN_M11,X2_M11,X0_M11,X1_M11
2023-05-31 16:00:00,SystemResetWarning,0827.6,4.99,000.00,026.8,024.8,000.0,035.4,028.4,28.0,0000.0,0005.25,0018.36,0003.71
2023-05-31 16:01:00,SystemResetWarning,0827.6,5.00,000.00,026.8,024.7,000.0,035.4,028.3,28.2,0000.0,0005.34,0018.79,0003.71
2023-05-31 16:02:00,SystemResetWarning,0827.5,5.01,000.00,026.7,024.6,000.0,035.4,028.2,28.4,0000.0,0005.36,0019.51,0003.72
2023-05-31 16:03:00,SystemResetWarning,0827.8,5.00,000.00,026.7,024.6,000.0,035.3,028.2,28.2,0000.0,0005.34,0019.01,0003.71
2023-05-31 16:04:00,SystemResetWarning,0827.9,5.01,000.00,026.7,024.6,000.0,035.3,028.3,28.3,0000.0,0005.35,0017.91,0003.71
2023-05-31 16:05:00,SystemResetWarning,0827.7,5.00,000.00,026.7,024.8,000.0,035.3,028.4,28.6,0000.0,0005.42,0017.66,0003.72
2023-05-31 16:06:00,SystemResetWarning,0827.7,5.00,000.00,026.8,024.9,000.0,035.3,028.5,28.8,0000.0,0005.45,0019.67,0003.72
2023-05-31 16:07:00,SystemResetWarning,0827.6,5.00,000.00,026.8,025.1,000.0,035.3,028.6,28.6,0000.0,0005.48,0020.06,0003.71
2023-05-31 16:08:00,SystemResetWarning,0827.8,5.00,000.00,026.9,025.2,000.0,035.3,028.6,28.4,0000.0,0005.49,0020.60,0003.70
2023-05-31 16:09:00,SystemResetWarning,0827.6,5.00,000.00,026.9,025.4,000.0,035.3,028.7,29.1,0000.0,0005.49,0020.69,0003.69
2023-05-31 16:10:00,SystemResetWarning,0827.4,5.01,000.00,026.9,025.5,000.0,035.3,028.7,28.4,0000.0,0005.42,0021.17,0003.69
2023-05-31 16:11:00,SystemResetWarning,0827.4,5.00,000.00,027.0,025.6,000.0,035.3,028.8,28.5,0000.0,0005.37,0021.22,0003.68
2023-05-31 16:12:00,SystemResetWarning,0827.4,4.99,000.00,027.0,025.7,000.0,035.3,028.8,29.3,0000.0,0005.32,0020.64,0003.67
2023-05-31 16:13:00,SystemResetWarning,0827.4,4.99,000.00,027.1,025.7,000.0,035.4,028.8,28.6,0000.0,0005.28,0019.55,0003.67
2023-05-31 16:14:00,SystemResetWarning,0827.4,5.00,000.00,027.1,025.8,000.0,035.4,028.9,29.1,0000.0,0005.30,0020.29,0003.68
2023-05-31 16:15:00,SystemResetWarning,0827.4,5.01,000.00,027.1,025.9,000.0,035.4,028.9,28.9,0000.0,0005.29,0021.33,0003.69
2023-05-31 16:16:00,SystemResetWarning,0827.4,5.01,000.00,027.2,026.0,000.0,035.4,029.0,27.8,0000.0,0005.21,0020.72,0003.68
2023-05-31 16:17:00,SystemResetWarning,0827.4,5.00,000.00,027.2,026.1,000.0,035.5,029.0,28.3,0000.0,0005.19,0019.00,0003.69
2023-05-31 16:18:00,SystemResetWarning,0827.4,4.99,000.00,027.3,026.1,000.0,035.5,029.0,28.3,0000.0,0005.21,0018.72,0003.70
2023-05-31 16:19:00,SystemResetWarning,0827.4,5.00,000.00,027.3,026.2,000.0,035.5,029.1,28.7,0000.0,0005.19,0018.52,0003.72
2023-05-31 16:20:00,SystemResetWarning,0827.4,5.00,000.00,027.3,026.2,000.0,035.5,029.1,28.4,0000.0,0005.17,0019.22,0003.72
2023-05-31 16:21:00,SystemResetWarning,0827.4,5.01,000.00,027.4,026.3,000.0,035.6,029.2,28.1,0000.0,0005.12,0018.37,0003.71
2023-05-31 16:22:00,SystemResetWarning,0827.4,5.00,000.00,027.4,026.3,000.0,035.6,029.2,28.3,0000.0,0005.16,0017.07,0003.70
2023-05-31 16:23:00,SystemResetWarning,0827.4,5.00,000.00,027.4,026.4,000.0,035.6,029.2,27.8,0000.0,0005.18,0017.18,0003.71
2023-05-31 16:24:00,SystemResetWarning,0827.4,5.00,000.00,027.5,026.4,000.0,035.6,029.3,28.1,0000.0,0005.24,0018.83,0003.72
2023-05-31 16:25:00,SystemResetWarning,0827.3,5.00,000.00,027.5,026.5,000.0,035.7,029.3,28.4,0000.0,0005.20,0018.28,0003.71
2023-05-31 16:26:00,SystemResetWarning,0827.4,5.00,000.00,027.5,026.5,000.0,035.7,029.4,28.8,0000.0,0005.17,0017.05,0003.69
2023-05-31 16:27:00,SystemResetWarning,0827.4,4.99,000.00,027.6,026.6,000.0,035.7,029.4,27.7,0000.0,0005.20,0017.34,0003.68
2023-05-31 16:28:00,SystemResetWarning,0827.4,5.01,000.00,027.6,026.6,000.0,035.8,029.4,27.8,0000.0,0005.15,0017.28,0003.68
2023-05-31 16:29:00,SystemResetWarning,0827.4,5.00,000.00,027.6,026.6,000.0,035.8,029.4,27.9,0000.0,0005.12,0016.72,0003.67
2023-05-31 16:30:00,SystemResetWarning,0827.4,4.99,000.00,027.7,026.6,000.0,035.8,029.4,27.7,0000.0,0005.07,0017.22,0003.65
2023-05-31 16:31:00,SystemResetWarning,0827.4,5.00,000.00,027.7,026.7,000.0,035.9,029.5,27.7,0000.0,0005.08,0017.09,0003.66
2023-05-31 16:32:00,SystemResetWarning,0827.3,5.01,000.00,027.7,026.7,000.0,035.9,029.5,27.5,0000.0,0005.14,0016.78,0003.67
2023-05-31 16:33:00,SystemResetWarning,0827.3,5.00,000.00,027.7,026.6,000.0,035.9,029.5,27.8,0000.0,0005.13,0016.60,0003.68
2023-05-31 16:34:00,SystemResetWarning,0827.3,5.01,000.00,027.8,026.7,000.0,035.9,029.5,28.3,0000.0,0005.10,0016.16,0003.68
2023-05-31 16:35:00,SystemResetWarning,0827.3,4.99,000.00,027.8,026.7,000.0,036.0,029.5,27.8,0000.0,0005.06,0015.26,0003.68
2023-05-31 16:36:00,SystemResetWarning,0827.3,4.99,000.00,027.8,026.7,000.0,036.0,029.6,28.7,0000.0,0005.03,0014.23,0003.70
2023-05-31 16:37:00,SystemResetWarning,0827.3,5.02,000.00,027.8,026.7,000.0,036.0,029.6,29.1,0000.0,0005.09,0014.79,0003.72
2023-05-31 16:38:00,SystemResetWarning,0827.3,5.00,000.00,027.8,026.8,000.0,036.1,029.6,28.4,0000.0,0005.09,0014.13,0003.72
2023-05-31 16:39:00,SystemResetWarning,0827.3,4.99,000.00,027.9,026.8,000.0,036.1,029.6,28.0,0000.0,0005.13,0013.86,0003.70
2023-05-31 16:40:00,SystemResetWarning,0827.2,4.99,000.00,027.9,026.8,000.0,036.1,029.7,28.0,0000.0,0005.19,0014.41,0003.70
2023-05-31 16:41:00,SystemResetWarning,0827.2,5.00,000.00,027.9,026.9,000.0,036.1,029.7,28.1,0000.0,0005.21,0014.67,0003.70
2023-05-31 16:42:00,SystemResetWarning,0827.2,5.01,000.00,028.0,026.9,000.0,036.2,029.7,28.1,0000.0,0005.21,0014.27,0003.71
2023-05-31 16:43:00,SystemResetWarning,0827.2,5.00,000.00,028.0,026.9,000.0,036.2,029.8,28.8,0000.0,0005.20,0015.76,0003.70
2023-05-31 16:44:00,SystemResetWarning,0827.2,5.00,000.00,028.0,027.0,000.0,036.2,029.8,28.2,0000.0,0005.22,0016.07,0003.70
2023-05-31 16:45:00,SystemResetWarning,0827.2,4.99,000.00,028.1,027.0,000.0,036.2,029.8,27.4,0000.0,0005.25,0016.28,0003.71
2023-05-31 16:46:00,SystemResetWarning,0827.2,5.00,000.00,028.1,027.0,000.0,036.3,029.8,26.5,0000.0,0005.21,0016.66,0003.69
2023-05-31 16:47:00,SystemResetWarning,0827.2,5.00,000.00,028.1,027.0,000.0,036.3,029.8,27.3,0000.0,0005.23,0016.85,0003.67
2023-05-31 16:48:00,SystemResetWarning,0827.2,5.00,000.00,028.1,027.1,000.0,036.3,029.9,26.7,0000.0,0005.20,0016.67,0003.64
2023-05-31 16:49:00,SystemResetWarning,0827.1,5.00,000.00,028.2,027.1,000.0,036.3,029.9,25.9,0000.0,0005.13,0016.99,0003.64
2023-05-31 16:50:00,SystemResetWarning,0827.2,5.00,000.00,028.2,027.1,000.0,036.4,029.9,26.5,0000.0,0005.14,0019.14,0003.65
2023-05-31 16:51:00,SystemResetWarning,0827.2,5.00,000.00,028.2,027.1,000.0,036.4,029.9,25.9,0000.0,0005.08,0019.80,0003.64
2023-05-31 16:52:00,SystemResetWarning,0827.1,5.00,000.00,028.2,027.1,000.0,036.4,029.9,25.8,0000.0,0005.07,0018.97,0003.63
2023-05-31 16:55:00,SystemResetWarning,0827.1,5.01,000.00,028.3,027.1,000.0,036.5,030.0,26.8,0000.0,0005.05,0017.80,0003.62
2023-05-31 16:56:00,SystemResetWarning,0827.1,5.00,000.00,028.3,027.2,000.0,036.5,030.0,26.6,0000.0,0005.05,0018.03,0003.61
2023-05-31 16:57:00,SystemResetWarning,0827.1,5.00,000.00,028.3,027.2,000.0,036.5,030.0,26.0,0000.0,0005.13,0017.85,0003.62
2023-05-31 16:58:00,SystemResetWarning,0827.0,4.99,000.00,028.3,027.2,000.0,036.6,030.0,26.7,0000.0,0005.14,0018.29,0003.64
2023-05-31 16:59:00,SystemResetWarning,0827.1,5.00,000.00,028.3,027.2,000.0,036.6,030.1,26.5,0000.0,0005.18,0019.29,0003.65
